GW2898 Weather Reports


Display with metric or nautical units.
time (UTC)temp
F
wind
direction
speed
MPH
gust
MPH
rain 1hr
in
rain 24hr
in
rain mn
in
humidity
%
barometer
mb
20260901192811 93 190 2.0 5.0 0.00 0.00 0.00 50 1018.4
20260901192307 93 190 2.0 5.0 0.00 0.00 0.00 49 1018.4
20260901191802 93 249 3.0 4.0 0.00 0.00 0.00 49 1018.3
20260901191258 93 193 2.0 5.0 0.00 0.00 0.00 50 1018.4
20260901190754 92 231 1.0 7.0 0.00 0.00 0.00 52 1018.2
20260901190248 91 252 4.0 7.0 0.00 0.00 0.00 51 1018.5
20260901185746 91 273 2.0 5.0 0.00 0.00 0.00 51 1018.7
20260901185245 91 288 3.0 7.0 0.00 0.00 0.00 51 1018.9
20260901184741 91 217 3.0 6.0 0.00 0.00 0.00 53 1018.9
20260901184236 91 212 0.0 3.0 0.00 0.00 0.00 53 1019.1
20260901183732 91 218 3.0 6.0 0.00 0.00 0.00 55 1019.1
20260901183231 90 246 3.0 6.0 0.00 0.00 0.00 53 1019.1
20260901182728 91 159 3.0 4.0 0.00 0.00 0.00 52 1019.2
20260901182226 91 110 3.0 5.0 0.00 0.00 0.00 53 1019.1
20260901181721 91 184 0.0 6.0 0.00 0.00 0.00 52 1019.3
20260901181215 91 45 2.0 3.0 0.00 0.00 0.00 53 1019.5
20260901180715 90 64 5.0 5.0 0.00 0.00 0.00 55 1019.2
20260901180209 89 172 2.0 8.0 0.00 0.00 0.00 54 1019.4
20260901175709 90 212 4.0 5.0 0.00 0.00 0.00 54 1019.3
20260901175209 90 201 2.0 3.0 0.00 0.00 0.00 56 1019.1
20260901174704 88 213 3.0 7.0 0.00 0.00 0.00 55 1019.5
20260901174200 89 203 2.0 5.0 0.00 0.00 0.00 56 1019.5
20260901173655 88 244 3.0 9.0 0.00 0.00 0.00 57 1019.6
20260901173150 88 193 2.0 7.0 0.00 0.00 0.00 58 1019.6
20260901172646 87 247 4.0 7.0 0.00 0.00 0.00 57 1019.7
20260901172143 88 220 3.0 4.0 0.00 0.00 0.00 58 1019.7
20260901171643 87 237 4.0 5.0 0.00 0.00 0.00 57 1019.5
20260901171142 87 230 3.0 8.0 0.00 0.00 0.00 59 1019.5
20260901170636 87 181 2.0 5.0 0.00 0.00 0.00 58 1019.7
20260901170131 87 172 0.0 7.0 0.00 0.00 0.00 59 1019.7
20260901165630 86 214 3.0 9.0 0.00 0.00 0.00 58 1019.6
20260901165125 87 214 4.0 6.0 0.00 0.00 0.00 59 1019.4
20260901164621 87 152 3.0 6.0 0.00 0.00 0.00 58 1019.6
20260901164116 86 212 2.0 6.0 0.00 0.00 0.00 63 1019.5
20260901163612 85 241 2.0 5.0 0.00 0.00 0.00 61 1019.3
20260901163110 86 208 4.0 8.0 0.00 0.00 0.00 62 1019.6
20260901162607 85 258 1.0 5.0 0.00 0.00 0.00 60 1019.3
20260901162105 86 222 5.0 5.0 0.00 0.00 0.00 60 1019.4
20260901161604 86 234 3.0 4.0 0.00 0.00 0.00 60 1019.3
20260901161059 85 181 0.0 3.0 0.00 0.00 0.00 60 1019.3
20260901160555 85 195 0.0 4.0 0.00 0.00 0.00 60 1019.2
20260901160050 85 221 2.0 5.0 0.00 0.00 0.00 61 1019.4
20260901155549 84 161 4.0 7.0 0.00 0.00 0.00 61 1019.4
20260901155045 85 198 1.0 4.0 0.00 0.00 0.00 61 1019.3
20260901154544 85 195 2.0 5.0 0.00 0.00 0.00 60 1019.4
20260901154040 85 169 3.0 5.0 0.00 0.00 0.00 60 1019.3
20260901153539 86 203 2.0 3.0 0.00 0.00 0.00 58 1019.1
20260901153034 86 333 0.0 3.0 0.00 0.00 0.00 60 1019.0
20260901152529 86 158 2.0 3.0 0.00 0.00 0.00 58 1019.0
20260901152028 84 243 0.0 4.0 0.00 0.00 0.00 60 1019.0
20260901151524 85 149 2.0 4.0 0.00 0.00 0.00 59 1019.1
20260901151023 84 107 0.0 5.0 0.00 0.00 0.00 61 1019.1
20260901150521 84 84 4.0 5.0 0.00 0.00 0.00 62 1018.9
20260901150019 83 81 3.0 6.0 0.00 0.00 0.00 63 1019.0
20260901145513 83 79 5.0 7.0 0.00 0.00 0.00 62 1018.9
20260901145012 84 41 2.0 4.0 0.00 0.00 0.00 62 1019.0
20260901144508 84 104 1.0 4.0 0.00 0.00 0.00 63 1019.1
20260901144003 83 27 0.0 3.0 0.00 0.00 0.00 64 1018.9
20260901143459 83 92 2.0 3.0 0.00 0.00 0.00 66 1018.9
20260901142956 82 17 0.0 2.0 0.00 0.00 0.00 68 1018.7
20260901142455 82 0 2.0 3.0 0.00 0.00 0.00 68 1018.9
20260901141950 82 89 0.0 2.0 0.00 0.00 0.00 68 1018.7
20260901141450 82 38 0.0 1.0 0.00 0.00 0.00 69 1018.9
20260901140945 81 0 0.0 1.0 0.00 0.00 0.00 70 1019.0
20260901140443 80 76 0.0 3.0 0.00 0.00 0.00 72 1018.9
20260901135938 80 70 1.0 2.0 0.00 0.00 0.00 74 1018.9
20260901135432 79 28 2.0 2.0 0.00 0.00 0.00 76 1019.1
20260901134929 78 14 1.0 2.0 0.00 0.00 0.00 80 1018.9
20260901134424 78 123 1.0 2.0 0.00 0.00 0.00 82 1018.6
20260901133923 77 87 0.0 1.0 0.00 0.00 0.00 84 1018.7
20260901133417 76 81 0.0 1.0 0.00 0.00 0.00 86 1018.6
20260901132916 75 129 0.0 1.0 0.00 0.00 0.00 86 1018.6
20260901132411 74 50 0.0 1.0 0.00 0.00 0.00 87 1018.4
20260901131910 74 262 0.0 1.0 0.00 0.00 0.00 87 1018.3
20260901131410 73 38 0.0 0.0 0.00 0.00 0.00 87 1018.2
20260901130906 73 50 0.0 0.0 0.00 0.00 0.00 87 1018.2
20260901130406 73 50 0.0 1.0 0.00 0.00 0.00 87 1018.3
20260901125903 73 269 0.0 1.0 0.00 0.00 0.00 87 1018.1
20260901125403 73 117 0.0 0.0 0.00 0.00 0.00 87 1018.1
20260901124857 73 129 0.0 1.0 0.00 0.00 0.00 86 1018.1
20260901124353 73 124 0.0 1.0 0.00 0.00 0.00 86 1018.5
20260901123853 73 89 0.0 1.0 0.00 0.00 0.00 86 1018.2
20260901123348 73 111 1.0 1.0 0.00 0.00 0.00 86 1018.1
20260901122846 73 83 2.0 2.0 0.00 0.00 0.00 86 1018.1
20260901122340 73 117 0.0 1.0 0.00 0.00 0.00 86 1018.2
20260901121840 73 62 0.0 0.0 0.00 0.00 0.00 86 1018.2
20260901121335 73 62 0.0 0.0 0.00 0.00 0.00 86 1018.2
20260901120830 73 117 0.0 1.0 0.00 0.00 0.00 86 1017.9
20260901120324 73 121 0.0 1.0 0.00 0.00 0.00 85 1017.8
20260901115820 73 217 0.0 1.0 0.00 0.00 0.00 85 1017.8
20260901115315 74 62 0.0 0.0 0.00 0.00 0.00 85 1017.9
20260901114813 74 89 0.0 1.0 0.00 0.00 0.00 84 1017.7
20260901114308 73 44 0.0 1.0 0.00 0.00 0.00 84 1017.8
20260901113806 74 55 0.0 1.0 0.00 0.00 0.00 83 1017.7
20260901113301 74 115 0.0 1.0 0.00 0.00 0.00 83 1017.7
20260901112755 74 44 0.0 1.0 0.00 0.00 0.00 83 1017.8
20260901112250 74 66 0.0 1.0 0.00 0.00 0.00 83 1017.7
20260901111745 74 310 0.0 0.0 0.00 0.00 0.00 82 1017.7
20260901111243 74 310 0.0 0.0 0.00 0.00 0.00 82 1017.8
20260901110737 74 37 0.0 1.0 0.00 0.00 0.00 82 1017.6
20260901110233 74 38 0.0 1.0 0.00 0.00 0.00 83 1017.6
20260901105730 74 37 0.0 0.0 0.00 0.00 0.00 83 1017.6
20260901105229 74 37 0.0 1.0 0.00 0.00 0.00 83 1017.4
20260901104725 74 62 0.0 0.0 0.00 0.00 0.00 82 1017.7
20260901104220 74 142 0.0 0.0 0.00 0.00 0.00 82 1017.7
20260901103719 74 89 0.0 1.0 0.00 0.00 0.00 82 1017.7
20260901103215 75 62 0.0 1.0 0.00 0.00 0.00 82 1017.7
20260901102715 74 43 0.0 1.0 0.00 0.00 0.00 82 1017.5
20260901102214 74 117 0.0 0.0 0.00 0.00 0.00 81 1017.8
20260901101710 75 50 0.0 1.0 0.00 0.00 0.00 81 1017.7
20260901101205 75 55 0.0 0.0 0.00 0.00 0.00 81 1017.8
20260901100659 75 50 0.0 0.0 0.00 0.00 0.00 80 1017.8
20260901100154 75 62 0.0 1.0 0.00 0.00 0.00 80 1017.7
20260901095652 75 129 0.0 0.0 0.00 0.00 0.00 80 1017.8
20260901095150 75 129 0.0 1.0 0.00 0.00 0.00 80 1017.8
20260901094644 75 47 0.0 2.0 0.00 0.00 0.00 80 1017.9
20260901094139 75 62 0.0 2.0 0.00 0.00 0.00 80 1017.7
20260901093638 75 89 0.0 2.0 0.00 0.00 0.00 81 1017.8
20260901093138 75 34 0.0 2.0 0.00 0.00 0.00 82 1017.9
20260901092634 75 37 0.0 1.0 0.00 0.00 0.00 82 1017.9
20260901092130 75 129 0.0 0.0 0.00 0.00 0.00 82 1017.7
20260901091625 75 103 1.0 2.0 0.00 0.00 0.00 81 1017.9
20260901091121 75 61 0.0 2.0 0.00 0.00 0.00 81 1017.9
20260901090620 75 113 0.0 1.0 0.00 0.00 0.00 81 1018.0
20260901090116 75 129 0.0 1.0 0.00 0.00 0.00 81 1018.0
20260901085612 75 117 0.0 1.0 0.00 0.00 0.00 82 1017.8
20260901085107 75 142 0.0 1.0 0.00 0.00 0.00 82 1018.0
20260901084603 75 117 0.0 1.0 0.00 0.00 0.00 82 1017.8
20260901084100 75 309 0.0 1.0 0.00 0.00 0.00 82 1017.9
20260901083553 75 129 0.0 1.0 0.00 0.00 0.00 82 1017.8
20260901083051 75 117 0.0 1.0 0.00 0.00 0.00 81 1018.3
20260901082547 75 113 0.0 0.0 0.00 0.00 0.00 81 1017.9
20260901082042 75 113 0.0 0.0 0.00 0.00 0.00 81 1017.9
20260901081537 75 22 0.0 2.0 0.00 0.00 0.00 81 1017.7
20260901081032 75 117 0.0 0.0 0.00 0.00 0.00 80 1017.8
20260901080531 75 142 0.0 1.0 0.00 0.00 0.00 79 1017.9
20260901080025 75 117 0.0 0.0 0.00 0.00 0.00 79 1017.8
20260901075521 76 117 0.0 0.0 0.00 0.00 0.00 78 1017.8
20260901075015 76 80 1.0 2.0 0.00 0.00 0.00 78 1017.8
20260901074514 76 29 0.0 1.0 0.00 0.00 0.00 77 1017.8
20260901074010 76 343 0.0 1.0 0.00 0.00 0.00 77 1017.6
20260901073507 76 25 0.0 0.0 0.00 0.00 0.00 78 1017.8
20260901073006 76 25 0.0 1.0 0.00 0.00 0.00 78 1018.0
20260901072501 76 62 0.0 0.0 0.00 0.00 0.00 78 1018.0
20260901071951 76 62 0.0 0.0 0.00 0.00 0.00 77 1017.8
20260901071450 77 62 0.0 1.0 0.00 0.00 0.00 76 1017.6
20260901070950 76 81 0.0 2.0 0.00 0.00 0.00 76 1017.9
20260901070445 76 129 0.0 0.0 0.00 0.00 0.00 75 1017.6
20260901065944 76 129 0.0 0.0 0.00 0.11 0.11 75 1017.6
20260901065440 77 129 0.0 1.0 0.00 0.11 0.11 75 1017.3
20260901064934 77 142 0.0 1.0 0.00 0.11 0.11 75 1017.4
20260901064431 77 242 0.0 0.0 0.00 0.11 0.11 75 1017.3
20260901063928 77 242 0.0 0.0 0.00 0.11 0.11 75 1017.3
20260901063424 77 104 0.0 1.0 0.00 0.11 0.11 75 1017.3
20260901062920 77 154 0.0 0.0 0.00 0.11 0.11 75 1017.4
20260901062415 77 278 0.0 1.0 0.00 0.11 0.11 75 1017.4
20260901061910 77 104 0.0 0.0 0.00 0.11 0.11 73 1017.2
20260901061406 77 104 0.0 0.0 0.00 0.11 0.11 73 1017.5
20260901060901 77 99 1.0 2.0 0.00 0.11 0.11 73 1017.5
20260901060357 77 142 0.0 1.0 0.00 0.11 0.11 73 1017.3
20260901055856 77 104 0.0 1.0 0.00 0.11 0.11 73 1017.3
20260901055352 77 124 0.0 0.0 0.00 0.11 0.11 73 1017.5
20260901054849 77 124 0.0 1.0 0.00 0.11 0.11 74 1017.4
20260901054346 77 117 0.0 1.0 0.00 0.11 0.11 73 1017.5
20260901053841 77 62 0.0 1.0 0.00 0.11 0.11 73 1017.4
20260901053336 77 117 0.0 0.0 0.00 0.11 0.11 71 1017.3
20260901052832 78 117 0.0 0.0 0.00 0.11 0.11 70 1017.3
20260901052328 78 117 0.0 0.0 0.00 0.11 0.11 70 1017.3
20260901051826 78 117 0.0 1.0 0.00 0.11 0.11 68 1017.5
20260901051322 79 6 0.0 1.0 0.00 0.11 0.11 68 1017.3
20260901050817 79 339 0.0 1.0 0.00 0.11 0.11 68 1017.2
20260901050313 79 52 0.0 1.0 0.00 0.11 0.11 68 1017.3
20260901045808 79 117 0.0 1.0 0.00 0.11 0.11 66 1017.3
20260901045307 79 154 0.0 0.0 0.00 0.11 0.11 66 1017.3
20260901044803 79 154 0.0 0.0 0.00 0.11 0.11 66 1017.2
20260901044259 79 154 0.0 0.0 0.00 0.11 0.11 66 1017.3
20260901043754 80 154 0.0 0.0 0.00 0.11 0.11 64 1017.3
20260901043250 80 117 0.0 1.0 0.00 0.11 0.11 64 1017.1
20260901042749 80 126 0.0 0.0 0.00 0.11 0.11 64 1017.3
20260901042244 80 129 0.0 0.0 0.00 0.11 0.11 63 1017.2
20260901041740 80 104 0.0 1.0 0.00 0.11 0.11 64 1017.3
20260901041240 80 142 0.0 1.0 0.00 0.11 0.11 63 1017.3
20260901040729 80 135 0.0 1.0 0.00 0.11 0.11 63 1017.1
20260901040228 81 135 0.0 1.0 0.00 0.11 0.11 62 1017.2
20260901035726 81 230 2.0 2.0 0.00 0.11 0.11 61 1017.1
20260901035221 81 130 1.0 3.0 0.00 0.11 0.11 61 1017.0
20260901034719 81 163 0.0 2.0 0.00 0.11 0.11 61 1017.0
20260901034214 82 171 0.0 3.0 0.00 0.11 0.11 60 1017.0
20260901033714 82 146 1.0 2.0 0.00 0.11 0.11 60 1017.1
20260901033213 82 137 2.0 3.0 0.00 0.11 0.11 59 1017.1
20260901032712 82 206 1.0 3.0 0.00 0.11 0.11 59 1016.9
20260901032207 82 159 0.0 4.0 0.00 0.11 0.11 58 1016.8
20260901031657 83 146 0.0 4.0 0.00 0.11 0.11 58 1016.6
20260901031152 83 185 2.0 6.0 0.00 0.11 0.11 57 1016.6
20260901030652 83 246 0.0 5.0 0.00 0.11 0.11 56 1016.6
20260901030141 83 150 5.0 7.0 0.00 0.11 0.11 55 1016.5
20260901025635 83 218 0.0 4.0 0.00 0.11 0.11 55 1016.5
20260901025130 82 150 0.0 1.0 0.00 0.11 0.11 57 1016.5
20260901024624 82 230 0.0 0.0 0.00 0.11 0.11 58 1016.5
20260901024123 82 205 0.0 1.0 0.00 0.11 0.11 58 1016.3
20260901023622 83 75 0.0 0.0 0.00 0.11 0.11 57 1016.1
20260901023117 82 50 0.0 1.0 0.00 0.11 0.11 55 1016.0
20260901022612 82 130 0.0 0.0 0.00 0.11 0.11 55 1016.1
20260901022107 83 104 2.0 2.0 0.00 0.11 0.11 56 1016.1
20260901021603 83 191 0.0 0.0 0.00 0.11 0.11 55 1016.2
20260901021058 84 217 0.0 0.0 0.00 0.11 0.11 54 1016.1
20260901020554 84 142 0.0 2.0 0.00 0.11 0.11 53 1015.7
20260901020050 85 343 0.0 3.0 0.00 0.11 0.11 51 1015.7
20260901015545 85 356 2.0 2.0 0.00 0.11 0.11 51 1015.5
20260901015044 85 5 0.0 2.0 0.00 0.11 0.11 52 1015.4
20260901014540 84 67 1.0 2.0 0.00 0.11 0.11 51 1015.8
20260901014036 85 117 0.0 1.0 0.00 0.11 0.11 51 1015.5
20260901013532 85 104 0.0 2.0 0.00 0.11 0.11 51 1015.7
20260901013027 85 309 0.0 2.0 0.00 0.11 0.11 51 1015.5
20260901012526 85 44 0.0 3.0 0.00 0.11 0.11 51 1015.4
20260901012022 86 104 0.0 1.0 0.00 0.11 0.11 51 1015.3
20260901011519 86 352 0.0 2.0 0.00 0.11 0.11 50 1015.6
20260901011016 87 274 1.0 3.0 0.00 0.11 0.11 48 1015.7
20260901010511 88 199 0.0 5.0 0.00 0.11 0.11 47 1015.7
20260901010011 88 137 0.0 3.0 0.00 0.11 0.11 49 1015.6
20260901005505 87 79 3.0 4.0 0.00 0.11 0.11 47 1016.0
20260901005000 87 227 4.0 5.0 0.00 0.11 0.11 48 1015.7
20260901004500 88 217 3.0 4.0 0.00 0.11 0.11 46 1015.7
20260901003955 88 162 0.0 6.0 0.00 0.11 0.11 45 1015.8
20260901003450 88 207 6.0 8.0 0.00 0.11 0.11 44 1015.8
20260901002948 89 186 0.0 4.0 0.00 0.11 0.11 46 1016.0
20260901002448 89 237 2.0 3.0 0.00 0.11 0.11 45 1016.2
20260901001942 89 183 1.0 3.0 0.00 0.11 0.11 47 1015.8
20260901001438 89 284 0.0 5.0 0.00 0.11 0.11 46 1015.8
20260901000933 90 180 1.0 3.0 0.00 0.11 0.11 48 1015.7
20260901000428 89 197 1.0 4.0 0.00 0.11 0.11 47 1016.3
20260831235927 90 222 1.0 3.0 0.00 0.11 0.11 47 1016.2
20260831235423 88 71 5.0 6.0 0.00 0.11 0.11 49 1016.2
20260831234918 89 160 0.0 3.0 0.00 0.11 0.11 49 1016.3
20260831234417 89 255 0.0 2.0 0.00 0.11 0.11 47 1016.2
20260831233913 87 59 3.0 5.0 0.00 0.11 0.11 49 1016.4
20260831233408 87 71 2.0 6.0 0.00 0.11 0.11 50 1016.4
20260831232903 89 58 6.0 7.0 0.00 0.11 0.11 49 1016.4
20260831232359 88 54 2.0 6.0 0.00 0.11 0.11 50 1016.5
20260831231855 87 104 0.0 7.0 0.00 0.11 0.11 50 1016.5
20260831231351 87 68 6.0 9.0 0.00 0.11 0.11 50 1016.5
20260831230846 87 78 3.0 7.0 0.00 0.11 0.11 50 1016.5
20260831230341 89 164 2.0 4.0 0.00 0.11 0.11 48 1016.5
20260831225836 88 213 3.0 9.0 0.00 0.11 0.11 49 1016.6
20260831225331 88 137 2.0 7.0 0.00 0.11 0.11 50 1016.7
20260831224826 88 79 6.0 14.0 0.00 0.11 0.11 49 1016.8
20260831224321 88 183 2.0 6.0 0.00 0.11 0.11 49 1016.7
20260831223816 87 195 3.0 6.0 0.00 0.11 0.11 50 1016.9
20260831223312 88 193 3.0 7.0 0.00 0.11 0.11 50 1017.0
20260831222808 87 83 2.0 7.0 0.00 0.11 0.11 50 1016.9
20260831222306 87 45 2.0 4.0 0.00 0.11 0.11 50 1017.1
20260831221759 87 86 2.0 9.0 0.00 0.11 0.11 52 1017.2
20260831221254 88 163 3.0 7.0 0.00 0.11 0.11 50 1017.3
20260831220754 87 190 1.0 5.0 0.00 0.11 0.11 51 1017.4
20260831220249 86 104 4.0 8.0 0.00 0.11 0.11 54 1017.9
20260831215744 87 73 3.0 7.0 0.00 0.11 0.11 53 1017.9
20260831215241 87 194 2.0 9.0 0.00 0.11 0.11 53 1018.1
20260831214737 86 73 6.0 11.0 0.00 0.11 0.11 55 1018.2
20260831214234 87 104 2.0 11.0 0.00 0.11 0.11 54 1018.3
20260831213729 87 88 1.0 8.0 0.00 0.11 0.11 55 1018.3
20260831213226 87 156 3.0 5.0 0.00 0.11 0.11 54 1018.5
20260831212720 85 155 0.0 5.0 0.00 0.11 0.11 56 1018.7
20260831212217 86 91 4.0 8.0 0.00 0.11 0.11 55 1018.9
20260831211715 86 191 0.0 11.0 0.00 0.11 0.11 52 1019.0
20260831211211 88 153 1.0 7.0 0.00 0.11 0.11 55 1019.0
20260831210710 86 155 3.0 6.0 0.00 0.11 0.11 57 1018.9
20260831210207 86 92 2.0 5.0 0.00 0.11 0.11 57 1019.1
20260831205706 85 101 2.0 8.0 0.00 0.11 0.11 57 1019.2
20260831205202 85 64 6.0 9.0 0.00 0.11 0.11 55 1019.4
20260831204657 85 106 4.0 11.0 0.00 0.11 0.11 55 1019.3
20260831204155 85 128 0.0 6.0 0.00 0.11 0.11 58 1019.3
20260831203649 84 54 3.0 7.0 0.00 0.11 0.11 61 1019.5
20260831203144 84 179 5.0 9.0 0.00 0.11 0.11 60 1019.5
20260831202643 84 96 3.0 8.0 0.00 0.11 0.11 63 1019.6
20260831202137 84 166 5.0 9.0 0.00 0.11 0.11 65 1019.6
20260831201637 84 210 2.0 4.0 0.00 0.11 0.11 67 1019.7
20260831201131 83 213 3.0 9.0 0.00 0.11 0.11 68 1019.9
20260831200627 83 193 3.0 7.0 0.00 0.11 0.11 69 1019.8
20260831200122 83 41 2.0 7.0 0.00 0.11 0.11 65 1019.8
20260831195617 83 160 2.0 6.0 0.00 0.11 0.11 67 1019.8
20260831195112 82 109 5.0 12.0 0.00 0.11 0.11 67 1019.6
20260831194608 82 109 2.0 7.0 0.00 0.11 0.11 66 1019.7
20260831194102 81 169 4.0 9.0 0.00 0.11 0.11 65 1019.8
20260831193557 81 7 1.0 7.0 0.00 0.11 0.11 66 1019.9
20260831193057 81 150 1.0 7.0 0.00 0.11 0.11 68 1020.0